sat.trackr.live / text

‹ back to catalog

STARLINK-32087

NORAD 59702 · 2024-086W

PAYLOAD ACTIVE UNKNOWN

§ Identity

Operator
Country
US
Launch date
2024-05-08
Launch site
AFETR
Launch vehicle
Mass (kg)
RCS (m²)

Purposes: comms

External: N2YO · Heavens-Above · Gunter

§ Orbital elements

Epoch: 2026-05-24T14:33:49.747392Z

Period
94.27 min
Inclination
43.0043°
Eccentricity
0.0001458
Mean motion
15.27577920 rev/d
Perigee alt
482.1 km
Apogee alt
484.1 km
Semi-major
6,861.2 km
B*
-9.5174e-5
RAAN
351.0724°
Arg perigee
263.0177°
Mean anomaly
97.0509°
Rev number
11,572

§ Raw data

STARLINK-320871 59702U 24086W   26144.60682578 -.00002880  00000+0 -95174-4 0  99912 59702  43.0043 351.0724 0001458 263.0177  97.0509 15.27577920115726

JSON: /api/v1/satellites/59702 · /tle

For live sub-satellite position, see the globe view (requires WebGL).

§ Visibility from observer

Set your observer location to see the next 7 days of passes ≥ 10°. The values pass through the URL so the page stays shareable.

No JS? Fill the form by hand. The geolocation button needs JavaScript.